EW6196 Weather Reports


Display with metric or nautical units.
time (UTC)temp
F
wind
direction
speed
MPH
gust
MPH
rain 1hr
in
rain 24hr
in
rain mn
in
humidity
%
barometer
mb
20260504045419 58 5 0.0 0.0 0.00 0.00 0.00 41 1000.5
20260504042419 59 5 0.0 0.0 0.00 0.00 0.00 40 1000.9
20260504035418 61 5 0.0 0.0 0.00 0.00 0.00 36 1001.6
20260504032417 62 5 0.0 0.0 0.00 0.00 0.00 33 1002.2
20260504025416 63 5 0.0 1.0 0.00 0.00 0.00 32 1002.4
20260504022417 64 5 0.0 2.0 0.00 0.00 0.00 30 1002.4
20260504015416 66 5 0.0 0.0 0.00 0.00 0.00 28 1002.5
20260504012415 67 5 0.0 6.0 0.00 0.00 0.00 27 1002.7
20260504005414 68 5 0.0 9.0 0.00 0.00 0.00 26 1002.8
20260504005210 69 5 0.0 2.0 0.00 0.00 0.00 25 1002.8
20260503235412 71 5 0.0 2.0 0.00 0.00 0.00 23 1003.0
20260503232412 73 5 0.0 5.0 0.00 0.00 0.00 21 1003.0
20260503230758 74 5 0.0 4.0 0.00 0.00 0.00 21 1003.3
20260503222409 74 5 0.0 5.0 0.00 0.00 0.00 20 1003.5
20260503215410 74 5 0.0 6.0 0.00 0.00 0.00 21 1003.6
20260503212408 74 5 0.0 11.0 0.00 0.00 0.00 20 1003.6
20260503205407 74 5 0.0 10.0 0.00 0.00 0.00 21 1003.9
20260503202407 73 5 0.0 6.0 0.00 0.00 0.00 22 1004.1
20260503195408 73 5 0.0 5.0 0.00 0.00 0.00 23 1004.5
20260503192408 72 5 0.0 4.0 0.00 0.00 0.00 23 1004.7
20260503185407 71 5 0.0 8.0 0.00 0.00 0.00 25 1004.7
20260503183751 71 5 0.0 4.0 0.00 0.00 0.00 31 1004.9
20260503180801 71 5 0.0 6.0 0.00 0.00 0.00 33 1005.0
20260503172404 70 5 0.0 5.0 0.00 0.00 0.00 35 1005.2
20260503072352 58 5 0.0 5.0 0.00 0.00 0.00 52 1004.4
20260503052350 59 5 0.0 6.0 0.00 0.00 0.00 45 1006.4